Location: Ellingshausen
(50.5460°N, 10.4723°E)
Time: 07:21:12
(UTC+00:00)

Cosmos 1500 Rocket - Pass Details

Date: 18 January 2026
Orbit: 597 x 623 km, 82.5° (Epoch: 18 February)

Event Time Altitude Azimuth Distance (km) Brightness Sun altitude
Rises 05:18:38 0° 211° (SSW) 2,861 6.8 -17.2°
Reaches altitude 10° 05:20:58 10° 219° (SW) 1,966 5.9 -16.9°
Maximum altitude 05:25:01 37° 288° (WNW) 968 4.0 -16.2°
Drops below altitude 10° 05:29:07 10° 356° (N) 1,996 6.0 -15.6°
Sets 05:31:31 0° 5° (N) 2,910 6.9 -15.2°
